Weather History for KSPS - December, 2012

Change the Weather History Date:

Saturday, December 22, 2012

  Actual Average Record
Temperature  
Mean Temperature 49 °F 42 °F  
Max Temperature 64 °F 53 °F 80 °F (1982)
Min Temperature 33 °F 30 °F -4 °F (1989)
Degree Days  
Heating Degree Days 16 23  
Month to date heating degree days 328 476  
Since 1 July heating degree days 752 983  
Moisture  
Dew Point 20 °F    
Average Humidity 43    
Maximum Humidity 71    
Minimum Humidity 14    
Precipitation  
Precipitation 0.00 in 0.05 in 2.20 in (1918)
Month to date precipitation 0.24 1.19  
Year to date precipitation 19.45 28.49  
Snow  
Snow 0.00 in 0.00 in - ()
Month to date snowfall 1.0 0.6  
Since 1 July snowfall 1.0 0.9  
Snow Depth -    
Sea Level Pressure  
Sea Level Pressure 30.10 in    
Wind  
Wind Speed 13 mph (SSW)    
Max Wind Speed 26 mph    
Max Gust Speed 32 mph    
Visibility 10 miles    
Events      
T = Trace of Precipitation, MM = Missing Value Source: NWS Daily Summary

Daily Weather History Graph

Daily Weather History Graph

Search for Another Location

Airport or City:

Trip Planner

Search our weather history database for the weather conditions in past years. The results will help you decide how hot, cold, wet, or windy it might be!

Date:

Astronomy

Dec. 22, 2012 Rise Set
Actual Time 7:36 AM CST 5:29 PM CST
Civil Twilight 7:08 AM CST 5:57 PM CST
Nautical Twilight 6:37 AM CST 6:28 PM CST
Astronomical Twilight 6:06 AM CST 6:59 PM CST
Moon 1:40 PM CST (12/22) 2:31 AM CST (12/22)
Length of Visible Light 10h 49m
Length of Day
9h 53m
Waxing Gibbous, 74% of the Moon is Illuminated
Dec 22
Waxing Gibbous
Dec 28
Full
Jan 4
Last Quarter
Jan 11
New
Jan 18
First Quarter

Hourly Weather History & Observations

Time (CST) Temp. Windchill Dew Point Humidity Pressure Visibility Wind Dir Wind Speed Gust Speed Precip Events Conditions
12:52 AM 37.0 °F 30.4 °F 10.0 °F 33% 30.23 in 10.0 mi South 9.2 mph - N/A   Clear
1:52 AM 37.0 °F 29.3 °F 10.9 °F 34% 30.22 in 10.0 mi SSW 11.5 mph - N/A   Clear
2:52 AM 37.0 °F 30.4 °F 10.0 °F 33% 30.22 in 10.0 mi SW 9.2 mph - N/A   Clear
3:52 AM 37.9 °F 30.5 °F 10.0 °F 32% 30.21 in 10.0 mi SW 11.5 mph - N/A   Clear
4:52 AM 37.9 °F 30.9 °F 10.0 °F 32% 30.20 in 10.0 mi SSW 10.4 mph - N/A   Clear
5:52 AM 34.0 °F 26.6 °F 10.0 °F 37% 30.20 in 10.0 mi SSW 9.2 mph - N/A   Clear
6:52 AM 35.1 °F 27.4 °F 10.9 °F 37% 30.21 in 10.0 mi SSW 10.4 mph - N/A   Clear
7:52 AM 37.9 °F 30.9 °F 10.9 °F 33% 30.21 in 10.0 mi SSW 10.4 mph - N/A   Clear
8:52 AM 41.0 °F 35.2 °F 10.9 °F 29% 30.22 in 10.0 mi SSW 9.2 mph - N/A   Clear
9:52 AM 46.9 °F - 10.0 °F 22% 30.20 in 10.0 mi SSW 15.0 mph - N/A   Clear
10:52 AM 55.0 °F - 6.1 °F 14% 30.18 in 10.0 mi SW 19.6 mph 25.3 mph N/A   Clear
11:52 AM 55.9 °F - 8.1 °F 15% 30.14 in 10.0 mi SW 18.4 mph 28.8 mph N/A   Clear
12:52 PM 57.0 °F - 9.0 °F 15% 30.09 in 10.0 mi SW 18.4 mph 26.5 mph N/A   Clear
1:52 PM 60.1 °F - 12.0 °F 15% 30.06 in 10.0 mi SSW 13.8 mph - N/A   Clear
2:52 PM 63.0 °F - 21.0 °F 20% 30.02 in 10.0 mi South 16.1 mph - N/A   Clear
3:52 PM 63.0 °F - 27.0 °F 26% 30.01 in 10.0 mi SSW 20.7 mph 24.2 mph N/A   Clear
4:52 PM 61.0 °F - 28.9 °F 30% 30.01 in 10.0 mi SSW 16.1 mph - N/A   Clear
5:52 PM 57.9 °F - 32.0 °F 37% 30.00 in 10.0 mi South 10.4 mph - N/A   Clear
6:52 PM 55.9 °F - 34.0 °F 44% 29.98 in 10.0 mi South 10.4 mph - N/A   Clear
7:52 PM 52.0 °F - 34.0 °F 50% 29.99 in 10.0 mi South 9.2 mph - N/A   Clear
8:52 PM 53.1 °F - 37.0 °F 55% 29.98 in 10.0 mi North - - N/A   Clear
9:52 PM 48.0 °F - 36.0 °F 63% 29.97 in 10.0 mi South 10.4 mph - N/A   Clear
10:52 PM 46.0 °F 41.0 °F 37.0 °F 71% 29.96 in 10.0 mi South 10.4 mph - N/A   Clear
11:52 PM 46.0 °F 40.6 °F 39.0 °F 76% 29.94 in 10.0 mi SSW 11.5 mph - N/A   Clear